軌道要素
Epoch 2013 Apr. 18.0 TT = JDT 2456400.5
T 2013 Apr. 10.78133 TT MPC
q 1.9504830 (2000.0) P Q
n 0.07469958 Peri. 169.00506 -0.97482316 -0.22266974
a 5.5837239 Node 358.01085 +0.17014495 -0.70875710
e 0.6506842 Incl. 19.78170 +0.14411977 -0.66938895
P 13.2
From 1869 observations 1960 Apr. 16-2013 July 2, mean residual 0".5.
Nongravitational parameters A1 = +0.35, A2 = -0.1097.
|